This demonstration page uses our WeatherBlox Daily Observations layout. Learn more.

Left ArrowRight Arrow

39.08367, -84.50855

Hourly Observations for January 10, 2017

Temp ( °F °C ) Dew Point ( °F °C ) Humidity (%) Winds ( mph kmh ) Pressure ( in mb ) Visibility ( mi km ) Precip ( " mm )
12:53 am 00:53 Cloudy 36 2.2 19 -7.2 50 50 S 9 15 30.28 1025 10 16 0.00 0.00
1:53 am 01:53 Cloudy 37 2.8 19 -7.2 48 48 S 10 17 30.23 1024 10 16 0.00 0.00
2:53 am 02:53 Cloudy 37 2.8 20 -6.7 50 50 S 9 15 30.20 1023 10 16 0.00 0.00
3:53 am 03:53 Cloudy 38 3.3 22 -5.6 52 52 S 12 19 30.19 1022 10 16 0.00 0.00
4:24 am 04:24 Cloudy 39 3.9 23 -5 53 53 S 10 17 30.18 1022 10 16 0.00 0.00
4:43 am 04:43 Cloudy 39 3.9 25 -3.9 57 57 S 14 22 30.15 1021 10 16 0.00 0.00
4:53 am 04:53 Cloudy 39 3.9 26 -3.3 60 60 S 12 19 30.16 1021 10 16 0.00 0.00
5:53 am 05:53 Cloudy 39 3.9 29 -1.7 67 67 S 17 28 30.13 1020 10 16 0.00 0.00
6:53 am 06:53 Cloudy 40 4.4 29 -1.7 65 65 S 16 26 30.11 1020 10 16 0.00 0.00
7:53 am 07:53 Cloudy 40 4.4 32 0 73 73 S 17 28 30.09 1019 10 16 0.00 0.00
8:53 am 08:53 Cloudy 42 5.6 33 0.6 71 71 S 20 31 30.06 1018 10 16 0.00 0.00
9:53 am 09:53 Cloudy 42 5.6 34 1.1 73 73 S 18 30 30.04 1017 10 16 0.00 0.00
10:53 am 10:53 Cloudy 45 7.2 34 1.1 66 66 S 20 31 30.01 1016 10 16 0.00 0.00
11:53 am 11:53 Cloudy 46 7.8 35 1.7 66 66 S 17 28 29.97 1015 10 16 0.00 0.00
12:53 pm 12:53 Cloudy 48 8.9 36 2.2 63 63 S 25 41 29.91 1013 10 16 0.00 0.00
1:53 pm 13:53 Cloudy 50 10 38 3.3 63 63 S 20 31 29.85 1011 10 16 0.00 0.00
2:53 pm 14:53 Cloudy 50 10 38 3.3 63 63 S 21 33 29.83 1010 10 16 0.00 0.00
3:53 pm 15:53 Cloudy with Light Rain 49 9.4 42 5.6 77 77 S 20 31 29.82 1010 10 16 0.02 0.51
4:53 pm 16:53 Cloudy with Light Rain 50 10 43 6.1 77 77 S 21 33 29.81 1009 10 16 0.00 0.00
5:53 pm 17:53 Cloudy 51 10.6 43 6.1 74 74 S 21 33 29.79 1009 10 16 0.00 0.00
6:53 pm 18:53 Cloudy 52 11.1 44 6.7 75 75 S 26 43 29.78 1009 10 16 0.00 0.00
7:23 pm 19:23 Cloudy with Light Rain 51 10.6 45 7.2 80 80 SSW 24 39 29.83 1010 9 14 0.00 0.00
7:53 pm 19:53 Cloudy with Light Rain 50 10 47 8.3 89 89 SSW 22 35 29.78 1009 8 13 0.05 1.27
8:53 pm 20:53 Mostly Cloudy with Light Rain 51 10.6 48 8.9 89 89 SSW 32 52 29.82 1010 10 16 0.00 0.00
9:51 pm 21:51 Cloudy with Thunderstorms 54 12 48 9 82 82 SSW 17 28 29.94 1014 9 14 0.00 0.00
9:53 pm 21:53 Cloudy with Thunderstorms 53 11.7 48 8.9 83 83 SW 15 24 29.90 1012 9 14 0.00 0.00
10:13 pm 22:13 Mostly Cloudy 52 11.1 48 8.9 86 86 WSW 9 15 29.94 1014 10 16 0.06 1.52
10:53 pm 22:53 Clear 51 10.6 42 5.6 71 71 WSW 15 24 30.00 1016 10 16 0.06 1.52
11:53 pm 23:53 Clear 48 8.9 40 4.4 74 74 WSW 12 19 30.03 1017 10 16 0.00 0.00

Powered by AerisWeather